Time,TemperatureF,DewpointF,PressureIn,WindDirection,WindDirectionDegrees,WindSpeedMPH,WindSpeedGustMPH,Humidity,HourlyPrecipIn,Conditions,Clouds,dailyrainin,SoftwareType,DateUTC
2013-04-23 00:02:00,51.0,33.0,-100.00,SE,140,2.0,7.0,50,-99.99,,,-99.99,,2013-04-23 05:02:00,
2013-04-23 00:12:00,51.0,33.0,-100.00,SE,140,2.0,7.0,50,-99.99,,,-99.99,,2013-04-23 05:12:00,
2013-04-23 00:32:00,50.0,33.0,-100.00,SE,135,1.0,5.0,52,-99.99,,,-99.99,,2013-04-23 05:32:00,
2013-04-23 00:42:00,50.0,33.0,-100.00,SE,135,1.0,5.0,52,-99.99,,,-99.99,,2013-04-23 05:42:00,
2013-04-23 00:52:00,50.0,33.0,-100.00,SE,135,1.0,5.0,52,-99.99,,,-99.99,,2013-04-23 05:52:00,
2013-04-23 01:01:00,50.0,33.0,-100.00,SE,135,1.0,5.0,52,-99.99,,,-99.99,,2013-04-23 06:01:00,
2013-04-23 01:12:00,50.0,33.0,-100.00,SE,135,1.0,5.0,52,-99.99,,,-99.99,,2013-04-23 06:12:00,
2013-04-23 01:33:00,53.0,36.0,-100.00,South,185,7.0,12.0,53,-99.99,,,-99.99,,2013-04-23 06:33:00,
2013-04-23 01:42:00,53.0,36.0,-100.00,South,185,7.0,12.0,53,-99.99,,,-99.99,,2013-04-23 06:42:00,
2013-04-23 01:52:00,53.0,36.0,-100.00,South,185,7.0,12.0,53,-99.99,,,-99.99,,2013-04-23 06:52:00,
2013-04-23 02:02:00,53.0,36.0,-100.00,South,185,7.0,12.0,53,-99.99,,,-99.99,,2013-04-23 07:02:00,
2013-04-23 02:11:00,53.0,36.0,-100.00,South,185,7.0,12.0,53,-99.99,,,-99.99,,2013-04-23 07:11:00,
2013-04-23 02:32:00,51.0,38.0,-100.00,SW,220,2.0,4.0,61,-99.99,,,-99.99,,2013-04-23 07:32:00,
2013-04-23 02:42:00,51.0,38.0,-100.00,SW,220,2.0,4.0,61,-99.99,,,-99.99,,2013-04-23 07:42:00,
2013-04-23 02:52:00,51.0,38.0,-100.00,SW,220,2.0,4.0,61,-99.99,,,-99.99,,2013-04-23 07:52:00,
2013-04-23 03:02:00,51.0,38.0,-100.00,SW,220,2.0,4.0,61,-99.99,,,-99.99,,2013-04-23 08:02:00,
2013-04-23 03:11:00,51.0,38.0,-100.00,SW,220,2.0,4.0,61,-99.99,,,-99.99,,2013-04-23 08:11:00,
2013-04-23 03:32:00,51.0,41.0,-100.00,South,170,2.0,5.0,69,-99.99,,,-99.99,,2013-04-23 08:32:00,
2013-04-23 03:42:00,51.0,41.0,-100.00,South,170,2.0,5.0,69,-99.99,,,-99.99,,2013-04-23 08:42:00,
2013-04-23 03:52:00,51.0,41.0,-100.00,South,170,2.0,5.0,69,-99.99,,,-99.99,,2013-04-23 08:52:00,
2013-04-23 04:01:00,51.0,41.0,-100.00,South,170,2.0,5.0,69,-99.99,,,-99.99,,2013-04-23 09:01:00,
2013-04-23 04:11:00,51.0,41.0,-100.00,South,170,2.0,5.0,69,-99.99,,,-99.99,,2013-04-23 09:11:00,
2013-04-23 04:33:00,50.0,43.0,-100.00,SSW,195,3.0,7.0,79,-99.99,,,-99.99,,2013-04-23 09:33:00,
2013-04-23 04:43:00,50.0,44.0,-100.00,SSW,200,4.0,6.0,81,-99.99,,,-99.99,,2013-04-23 09:43:00,
2013-04-23 04:52:00,50.0,44.0,-100.00,SSW,200,4.0,6.0,81,-99.99,,,-99.99,,2013-04-23 09:52:00,
2013-04-23 05:02:00,50.0,44.0,-100.00,SSW,200,4.0,6.0,81,-99.99,,,-99.99,,2013-04-23 10:02:00,
2013-04-23 05:10:00,43.0,38.0,-100.00,WNW,290,9.0,24.0,84,-99.99,,,-99.99,,2013-04-23 10:10:00,
2013-04-23 05:13:00,50.0,44.0,-100.00,SSW,200,4.0,6.0,81,-99.99,,,-99.99,,2013-04-23 10:13:00,
2013-04-23 05:33:00,43.0,38.0,-100.00,WNW,290,9.0,24.0,84,-99.99,,,-99.99,,2013-04-23 10:33:00,
2013-04-23 05:43:00,43.0,38.0,-100.00,WNW,290,9.0,24.0,84,-99.99,,,-99.99,,2013-04-23 10:43:00,
2013-04-23 05:52:00,43.0,38.0,-100.00,WNW,290,9.0,24.0,84,-99.99,,,-99.99,,2013-04-23 10:52:00,
2013-04-23 06:03:00,43.0,38.0,-100.00,WNW,290,9.0,24.0,84,-99.99,,,-99.99,,2013-04-23 11:03:00,
2013-04-23 06:32:00,38.0,36.0,-100.00,WNW,295,9.0,17.0,91,-99.99,,,-99.99,,2013-04-23 11:32:00,
2013-04-23 06:43:00,38.0,36.0,-100.00,WNW,295,9.0,17.0,91,-99.99,,,-99.99,,2013-04-23 11:43:00,
2013-04-23 06:53:00,38.0,36.0,-100.00,WNW,295,9.0,17.0,91,-99.99,,,-99.99,,2013-04-23 11:53:00,
2013-04-23 07:02:00,38.0,36.0,-100.00,WNW,295,9.0,17.0,91,-99.99,,,-99.99,,2013-04-23 12:02:00,
2013-04-23 07:12:00,38.0,36.0,-100.00,WNW,295,9.0,17.0,91,-99.99,,,-99.99,,2013-04-23 12:12:00,
2013-04-23 07:32:00,35.0,32.0,-100.00,WNW,285,10.0,19.0,91,-99.99,,,-99.99,,2013-04-23 12:32:00,
2013-04-23 07:42:00,35.0,32.0,-100.00,WNW,285,10.0,19.0,91,-99.99,,,-99.99,,2013-04-23 12:42:00,
2013-04-23 07:52:00,35.0,32.0,-100.00,WNW,285,10.0,19.0,91,-99.99,,,-99.99,,2013-04-23 12:52:00,
2013-04-23 08:01:00,35.0,32.0,-100.00,WNW,285,10.0,19.0,91,-99.99,,,-99.99,,2013-04-23 13:01:00,
2013-04-23 08:11:00,35.0,32.0,-100.00,WNW,285,10.0,19.0,91,-99.99,,,-99.99,,2013-04-23 13:11:00,
2013-04-23 10:12:00,36.0,30.0,-100.00,NW,305,10.0,17.0,77,-99.99,,,-99.99,,2013-04-23 15:12:00,
2013-04-23 10:32:00,36.0,30.0,-100.00,NW,305,10.0,17.0,77,-99.99,,,-99.99,,2013-04-23 15:32:00,
2013-04-23 10:43:00,36.0,30.0,-100.00,NW,305,10.0,17.0,77,-99.99,,,-99.99,,2013-04-23 15:43:00,
2013-04-23 10:53:00,36.0,30.0,-100.00,NW,305,10.0,17.0,77,-99.99,,,-99.99,,2013-04-23 15:53:00,
2013-04-23 11:03:00,36.0,30.0,-100.00,NW,305,10.0,17.0,77,-99.99,,,-99.99,,2013-04-23 16:03:00,
2013-04-23 13:32:00,40.0,27.0,-100.00,NNW,330,10.0,21.0,59,-99.99,,,-99.99,,2013-04-23 18:32:00,
2013-04-23 13:42:00,40.0,27.0,-100.00,NNW,330,10.0,21.0,59,-99.99,,,-99.99,,2013-04-23 18:42:00,
2013-04-23 13:52:00,40.0,27.0,-100.00,NNW,330,10.0,21.0,59,-99.99,,,-99.99,,2013-04-23 18:52:00,
2013-04-23 14:02:00,40.0,27.0,-100.00,NNW,330,10.0,21.0,59,-99.99,,,-99.99,,2013-04-23 19:02:00,
2013-04-23 14:11:00,40.0,27.0,-100.00,NNW,330,10.0,21.0,59,-99.99,,,-99.99,,2013-04-23 19:11:00,